User: anonymous
Location: Unspecified
(0.0000°N, 0.0000°E)
Time: 12:26:25
(UTC+02:00)
Language:

GPS 2-05 Rocket1 - Orbit

View from above orbital plane
View from above orbital plane
View from above satellite
View from above satellite

Ground track
Ground track

The orbit data is extracted from the following two-line orbital elements,

1 20362U 89097B   14274.78287162  .00014934  00000-0  50550-3 0  5338
2 20362 035.6229 096.9710 0107465 331.9990 142.7131 15.24350985347152
Epoch (UTC): 01 October 2014 18:47:20
Eccentricity: 0.0107465
inclination: 35.6229°
perigee height: 419 km
apogee height: 566 km
right ascension of ascending node: 96.9710°
argument of perigee: 331.9990°
revolutions per day: 15.24350985
mean anomaly at epoch: 142.7131°
orbit number at epoch: 34715

The dashed part of the orbit path shows where the satellite is in the earth's shadow,  

DLR